Location: Newark
(43.4100°N, 74.9600°W)
Time: 20:33:16
(UTC+00:00)

ISS - Pass Details

Date: 27 September 2019
Orbit: 411 x 421 km, 51.6° (Epoch: 13 October)

Event Time Altitude Azimuth Distance (km) Brightness Sun altitude
Rises 23:57:54 0° 277° (W) 2,341 2.1 -13.1°
Reaches altitude 10° 00:00:17 10° 292° (WNW) 1,480 0.4 -13.5°
Maximum altitude 00:03:00 23° 348° (NNW) 930 -1.8 -14.0°
Enters shadow 00:05:32 11° 41° (NE) 1,420 -1.4 -14.4°
